Location: El Álamo
(40.2307°N, 3.9945°W)
Time: 03:38:28
(UTC+00:00)

Cosmos 1315 Rocket - Pass Details

Date: 19 May 2025
Orbit: 498 x 525 km, 81.2° (Epoch: 23 June)

Event Time Altitude Azimuth Distance (km) Brightness Sun altitude
Exits shadow 22:31:16 38° 277° (W) 818 3.9 -25.3°
Maximum altitude 22:31:26 38° 284° (WNW) 815 3.9 -25.3°
Drops below altitude 10° 22:35:05 10° 353° (N) 1,772 6.3 -25.7°
Sets 22:37:21 0° 2° (N) 2,663 7.3 -25.8°
